PSGKA SBBR-SBTE

Flight info

Callsign PSGKA
Flight time 1h 40m
Altitude 47000
Route PULUV UZ5 TNA
Aircraft C750/M-SDGHIP1RWXY/S

Departure

Time 2026-04-17 22:40
Airport Presidente Juscelino Kubitschek International Airport (SBBR)

Arrival

Time 2026-04-18 00:20
Airport Senador Petrônio Portela Airport (SBTE)
Time Latitude Longitude Altitude Speed Heading
2026-04-17 22:21 -15.86744 -47.93106 3483 ft 0 kts 87°
2026-04-17 22:33 -15.86752 -47.93096 3483 ft 4 kts 156°
2026-04-17 22:33 -15.86779 -47.93074 3483 ft 5 kts 93°
2026-04-17 22:34 -15.86777 -47.93027 3483 ft 8 kts 86°
2026-04-17 22:34 -15.86773 -47.92962 3483 ft 10 kts 86°
2026-04-17 22:34 -15.86769 -47.92885 3483 ft 12 kts 86°
2026-04-17 22:34 -15.86764 -47.92798 3483 ft 13 kts 86°
2026-04-17 22:35 -15.86759 -47.92707 3483 ft 11 kts 86°
2026-04-17 22:35 -15.86753 -47.92618 3483 ft 13 kts 86°
2026-04-17 22:35 -15.86747 -47.92530 3483 ft 8 kts 85°
2026-04-17 22:35 -15.86729 -47.92500 3483 ft 7 kts 34°
2026-04-17 22:36 -15.86656 -47.92458 3483 ft 11 kts 28°
2026-04-17 22:36 -15.86611 -47.92433 3483 ft 11 kts 28°
2026-04-17 22:36 -15.86545 -47.92414 3483 ft 10 kts 334°
2026-04-17 22:36 -15.86528 -47.92482 3483 ft 11 kts 267°
2026-04-17 22:37 -15.86534 -47.92570 3483 ft 13 kts 266°
2026-04-17 22:37 -15.86540 -47.92673 3483 ft 14 kts 266°
2026-04-17 22:37 -15.86530 -47.92757 3483 ft 8 kts 330°
2026-04-17 22:37 -15.86480 -47.92768 3483 ft 5 kts 357°
2026-04-17 22:38 -15.86465 -47.92769 3483 ft 3 kts 357°
2026-04-17 22:38 -15.86434 -47.92770 3483 ft 6 kts
2026-04-17 22:38 -15.86389 -47.92746 3483 ft 9 kts 32°
2026-04-17 22:38 -15.86352 -47.92717 3483 ft 4 kts 79°
2026-04-17 22:39 -15.86351 -47.92701 3483 ft 0 kts 86°
2026-04-17 22:39 -15.86342 -47.92565 3483 ft 53 kts 85°
2026-04-17 22:40 -15.86296 -47.91850 3483 ft 142 kts 86°
2026-04-17 22:40 -15.86221 -47.90682 4103 ft 165 kts 86°
2026-04-17 22:40 -15.86142 -47.89459 5289 ft 175 kts 86°
2026-04-17 22:40 -15.86046 -47.88193 6329 ft 179 kts 84°
2026-04-17 22:41 -15.85892 -47.86874 7207 ft 189 kts 83°
2026-04-17 22:41 -15.85744 -47.85451 7810 ft 214 kts 84°
2026-04-17 22:41 -15.85618 -47.83891 8761 ft 221 kts 85°
2026-04-17 22:41 -15.85510 -47.82199 9431 ft 248 kts 86°
2026-04-17 22:42 -15.85300 -47.80288 9830 ft 284 kts 76°
2026-04-17 22:42 -15.84462 -47.78317 9993 ft 306 kts 55°
2026-04-17 22:42 -15.83017 -47.76792 9934 ft 286 kts 34°
2026-04-17 22:42 -15.81240 -47.75937 9806 ft 288 kts 14°
2026-04-17 22:43 -15.79256 -47.75771 9678 ft 287 kts 354°
2026-04-17 22:43 -15.77316 -47.76304 9570 ft 287 kts 338°
2026-04-17 22:43 -15.75494 -47.77130 9486 ft 287 kts 334°
2026-04-17 22:43 -15.73683 -47.78023 9460 ft 285 kts 334°
2026-04-17 22:44 -15.71903 -47.78904 9512 ft 296 kts 334°
2026-04-17 22:44 -15.70012 -47.79830 10506 ft 299 kts 334°
2026-04-17 22:44 -15.68047 -47.80620 11801 ft 303 kts 345°
2026-04-17 22:44 -15.65907 -47.80730 12666 ft 324 kts
2026-04-17 22:45 -15.63561 -47.80417 13089 ft 358 kts
2026-04-17 22:45 -15.60936 -47.80004 13524 ft 390 kts
2026-04-17 22:45 -15.58237 -47.79583 14707 ft 400 kts
2026-04-17 22:45 -15.55426 -47.79158 15946 ft 409 kts
2026-04-17 22:46 -15.52588 -47.78735 17133 ft 417 kts
2026-04-17 22:46 -15.49687 -47.78303 18275 ft 426 kts
2026-04-17 22:46 -15.46749 -47.77866 19430 ft 433 kts
2026-04-17 22:46 -15.43744 -47.77419 20562 ft 439 kts
2026-04-17 22:47 -15.40694 -47.76965 21660 ft 446 kts
2026-04-17 22:47 -15.37602 -47.76506 22749 ft 453 kts
2026-04-17 22:47 -15.34423 -47.76033 23813 ft 460 kts
2026-04-17 22:47 -15.31251 -47.75561 24844 ft 467 kts
2026-04-17 22:48 -15.28014 -47.75080 25789 ft 474 kts
2026-04-17 22:48 -15.24746 -47.74595 26719 ft 482 kts
2026-04-17 22:48 -15.21388 -47.74096 27629 ft 490 kts
2026-04-17 22:48 -15.17978 -47.73589 28526 ft 495 kts
2026-04-17 22:49 -15.14569 -47.73082 29404 ft 503 kts
2026-04-17 22:49 -15.11060 -47.72561 30197 ft 510 kts
2026-04-17 22:49 -15.07541 -47.72038 31062 ft 508 kts
2026-04-17 22:49 -15.03979 -47.71508 31320 ft 529 kts
2026-04-17 22:50 -15.00309 -47.70965 31309 ft 546 kts
2026-04-17 22:50 -14.96428 -47.70390 31670 ft 551 kts
2026-04-17 22:50 -14.92667 -47.69831 32708 ft 544 kts
2026-04-17 22:50 -14.88946 -47.69277 33420 ft 544 kts
2026-04-17 22:51 -14.85205 -47.68722 33947 ft 547 kts
2026-04-17 22:51 -14.81390 -47.68157 34397 ft 551 kts
2026-04-17 22:51 -14.77631 -47.67600 35018 ft 549 kts
2026-04-17 22:51 -14.73853 -47.67039 35984 ft 542 kts
2026-04-17 22:52 -14.70131 -47.66487 36599 ft 542 kts
2026-04-17 22:52 -14.66366 -47.65916 37026 ft 546 kts
2026-04-17 22:52 -14.62780 -47.64697 37910 ft 540 kts 25°
2026-04-17 22:52 -14.59478 -47.62917 38796 ft 536 kts 26°
2026-04-17 22:53 -14.56154 -47.61145 39443 ft 535 kts 26°
2026-04-17 22:53 -14.52833 -47.59381 40024 ft 536 kts 26°
2026-04-17 22:53 -14.49534 -47.57635 40462 ft 539 kts 26°
2026-04-17 22:53 -14.46160 -47.55854 40998 ft 538 kts 26°
2026-04-17 22:54 -14.42883 -47.54127 41500 ft 538 kts 26°
2026-04-17 22:54 -14.39546 -47.52371 42409 ft 528 kts 26°
2026-04-17 22:54 -14.36277 -47.50652 43063 ft 526 kts 26°
2026-04-17 22:54 -14.33024 -47.48945 43457 ft 528 kts 26°
2026-04-17 22:55 -14.29748 -47.47226 44171 ft 521 kts 26°
2026-04-17 22:55 -14.26557 -47.45552 45115 ft 510 kts 26°
2026-04-17 22:55 -14.23399 -47.43898 45920 ft 502 kts 26°
2026-04-17 22:55 -14.20317 -47.42284 46591 ft 498 kts 26°
2026-04-17 22:56 -14.17227 -47.40666 46842 ft 501 kts 26°
2026-04-17 22:56 -14.14097 -47.39029 46929 ft 502 kts 26°
2026-04-17 22:56 -14.07879 -47.35777 46973 ft 500 kts 26°
2026-04-17 22:57 -14.01679 -47.32538 46974 ft 499 kts 26°
2026-04-17 22:57 -13.95526 -47.29325 46972 ft 498 kts 26°
2026-04-17 22:58 -13.89727 -47.26298 46969 ft 496 kts 26°
2026-04-17 22:58 -13.83545 -47.23074 46966 ft 496 kts 26°
2026-04-17 22:59 -13.77418 -47.19880 46963 ft 495 kts 26°
2026-04-17 22:59 -13.71254 -47.16669 46960 ft 495 kts 26°
2026-04-17 23:00 -13.65128 -47.13480 46957 ft 495 kts 26°
2026-04-17 23:00 -13.59004 -47.10294 46954 ft 495 kts 26°
2026-04-17 23:01 -13.52837 -47.07087 46951 ft 495 kts 26°
2026-04-17 23:01 -13.46698 -47.03896 46948 ft 495 kts 26°
2026-04-17 23:02 -13.40519 -47.00687 46945 ft 495 kts 26°
2026-04-17 23:02 -13.34402 -46.97512 46943 ft 495 kts 26°
2026-04-17 23:03 -13.28217 -46.94303 46940 ft 495 kts 26°
2026-04-17 23:03 -13.22088 -46.91126 46937 ft 495 kts 26°
2026-04-17 23:04 -13.15932 -46.87936 46934 ft 495 kts 26°
2026-04-17 23:04 -13.09800 -46.84761 46931 ft 495 kts 26°
2026-04-17 23:05 -13.03656 -46.81582 46929 ft 495 kts 26°
2026-04-17 23:05 -12.98505 -46.78918 46927 ft 494 kts 26°
2026-04-17 23:06 -12.91372 -46.75230 46924 ft 494 kts 26°
2026-04-17 23:06 -12.85212 -46.72048 46946 ft 494 kts 26°
2026-04-17 23:07 -12.79079 -46.68881 46951 ft 494 kts 26°
2026-04-17 23:07 -12.72948 -46.65717 46950 ft 494 kts 26°
2026-04-17 23:08 -12.66789 -46.62541 46948 ft 494 kts 26°
2026-04-17 23:08 -12.60655 -46.59379 46946 ft 494 kts 26°
2026-04-17 23:09 -12.54515 -46.56215 46944 ft 494 kts 26°
2026-04-17 23:09 -12.48392 -46.53062 46938 ft 494 kts 26°
2026-04-17 23:10 -12.42251 -46.49898 46935 ft 493 kts 27°
2026-04-17 23:10 -12.36256 -46.46531 46934 ft 493 kts 29°
2026-04-17 23:11 -12.31255 -46.43657 46932 ft 493 kts 29°
2026-04-17 23:11 -12.25260 -46.40215 46931 ft 493 kts 29°
2026-04-17 23:12 -12.19293 -46.36798 46929 ft 493 kts 29°
2026-04-17 23:12 -12.13279 -46.33359 46928 ft 493 kts 29°
2026-04-17 23:13 -12.07337 -46.29967 46926 ft 493 kts 29°
2026-04-17 23:13 -12.01353 -46.26553 46925 ft 493 kts 29°
2026-04-17 23:14 -11.95312 -46.23109 46924 ft 493 kts 29°
2026-04-17 23:14 -11.89323 -46.19698 46923 ft 492 kts 29°
2026-04-17 23:15 -11.83357 -46.16301 46922 ft 492 kts 29°
2026-04-17 23:15 -11.77348 -46.12882 46921 ft 492 kts 29°
2026-04-17 23:16 -11.71387 -46.09492 46920 ft 492 kts 29°
2026-04-17 23:16 -11.65419 -46.06100 46919 ft 492 kts 29°
2026-04-17 23:17 -11.59418 -46.02692 46918 ft 492 kts 29°
2026-04-17 23:17 -11.53307 -45.99535 46917 ft 492 kts 26°
2026-04-17 23:18 -11.47143 -45.96465 46916 ft 492 kts 26°
2026-04-17 23:18 -11.40984 -45.93395 46916 ft 492 kts 26°
2026-04-17 23:19 -11.34852 -45.90334 46915 ft 492 kts 26°
2026-04-17 23:19 -11.28721 -45.87270 46914 ft 492 kts 26°
2026-04-17 23:20 -11.22546 -45.84183 46914 ft 492 kts 26°
2026-04-17 23:20 -11.16420 -45.81121 46913 ft 492 kts 26°
2026-04-17 23:21 -11.10254 -45.78039 46913 ft 492 kts 26°
2026-04-17 23:21 -11.04140 -45.74984 46912 ft 492 kts 26°
2026-04-17 23:22 -10.97983 -45.71909 46913 ft 491 kts 27°
2026-04-17 23:22 -10.91821 -45.68832 46913 ft 491 kts 27°
2026-04-17 23:23 -10.85700 -45.65777 46912 ft 491 kts 27°
2026-04-17 23:23 -10.79565 -45.62717 46912 ft 491 kts 27°
2026-04-17 23:24 -10.73439 -45.59662 46912 ft 491 kts 27°
2026-04-17 23:24 -10.67317 -45.56611 46911 ft 490 kts 27°
2026-04-17 23:25 -10.61196 -45.53561 46911 ft 490 kts 27°
2026-04-17 23:25 -10.55074 -45.50513 46910 ft 490 kts 27°
2026-04-17 23:26 -10.48931 -45.47455 46910 ft 490 kts 27°
2026-04-17 23:26 -10.42795 -45.44402 46910 ft 490 kts 27°
2026-04-17 23:27 -10.36660 -45.41351 46910 ft 490 kts 27°
2026-04-17 23:27 -10.30532 -45.38305 46909 ft 490 kts 27°
2026-04-17 23:28 -10.24429 -45.35272 46877 ft 491 kts 27°
2026-04-17 23:28 -10.18265 -45.32211 46861 ft 490 kts 27°
2026-04-17 23:29 -10.12142 -45.29172 46859 ft 490 kts 27°
2026-04-17 23:29 -10.06032 -45.26139 46858 ft 490 kts 27°
2026-04-17 23:30 -9.99891 -45.23094 46858 ft 490 kts 27°
2026-04-17 23:30 -9.93767 -45.20057 46857 ft 489 kts 27°
2026-04-17 23:31 -9.87649 -45.17025 46856 ft 489 kts 27°
2026-04-17 23:31 -9.81545 -45.14001 46855 ft 488 kts 27°
2026-04-17 23:32 -9.75458 -45.10987 46855 ft 488 kts 27°
2026-04-17 23:32 -9.69347 -45.07962 46854 ft 488 kts 27°
2026-04-17 23:33 -9.63236 -45.04939 46853 ft 488 kts 27°
2026-04-17 23:33 -9.57147 -45.01927 46852 ft 488 kts 27°
2026-04-17 23:34 -9.51063 -44.98919 46852 ft 488 kts 27°
2026-04-17 23:34 -9.45059 -44.95951 46850 ft 488 kts 27°
2026-04-17 23:35 -9.38948 -44.92931 46843 ft 488 kts 27°
2026-04-17 23:35 -9.32849 -44.89918 46835 ft 488 kts 27°
2026-04-17 23:36 -9.26751 -44.86907 46828 ft 487 kts 27°
2026-04-17 23:36 -9.20655 -44.83898 46826 ft 487 kts 27°
2026-04-17 23:37 -9.14559 -44.80891 46826 ft 487 kts 27°
2026-04-17 23:37 -9.08466 -44.77885 46825 ft 487 kts 27°
2026-04-17 23:38 -9.02375 -44.74883 46824 ft 487 kts 27°
2026-04-17 23:38 -8.97278 -44.72371 46823 ft 487 kts 27°
2026-04-17 23:39 -8.90184 -44.68876 46822 ft 487 kts 27°
2026-04-17 23:39 -8.84077 -44.65869 46822 ft 487 kts 27°
2026-04-17 23:40 -8.77968 -44.62861 46821 ft 487 kts 27°
2026-04-17 23:40 -8.71910 -44.59880 46820 ft 487 kts 27°
2026-04-17 23:41 -8.65810 -44.56879 46819 ft 487 kts 27°
2026-04-17 23:41 -8.59696 -44.53873 46819 ft 487 kts 27°
2026-04-17 23:42 -8.53632 -44.50892 46818 ft 487 kts 27°
2026-04-17 23:42 -8.47551 -44.47904 46817 ft 487 kts 27°
2026-04-17 23:43 -8.41455 -44.44910 46816 ft 487 kts 27°
2026-04-17 23:43 -8.35376 -44.41925 46816 ft 487 kts 27°
2026-04-17 23:44 -8.30299 -44.39432 46815 ft 487 kts 27°
2026-04-17 23:44 -8.23196 -44.35947 46814 ft 487 kts 27°
2026-04-17 23:45 -8.15082 -44.31967 46813 ft 487 kts 27°
2026-04-17 23:46 -8.08974 -44.28973 46813 ft 487 kts 27°
2026-04-17 23:46 -8.02870 -44.25981 46812 ft 487 kts 27°
2026-04-17 23:47 -7.96785 -44.22999 46811 ft 487 kts 27°
2026-04-17 23:47 -7.90668 -44.20003 46811 ft 487 kts 27°
2026-04-17 23:48 -7.84609 -44.17037 46810 ft 487 kts 27°
2026-04-17 23:48 -7.78501 -44.14048 46809 ft 487 kts 27°
2026-04-17 23:49 -7.72438 -44.11082 46809 ft 487 kts 27°
2026-04-17 23:49 -7.66335 -44.08098 46808 ft 487 kts 27°
2026-04-17 23:50 -7.60238 -44.05117 46807 ft 487 kts 27°
2026-04-17 23:50 -7.54148 -44.02141 46807 ft 487 kts 27°
2026-04-17 23:51 -7.48056 -43.99165 46806 ft 486 kts 27°
2026-04-17 23:51 -7.41916 -43.96167 46805 ft 487 kts 27°
2026-04-17 23:52 -7.35855 -43.93207 46802 ft 487 kts 27°
2026-04-17 23:52 -7.29729 -43.90217 46813 ft 487 kts 27°
2026-04-17 23:53 -7.23657 -43.87254 46614 ft 488 kts 27°
2026-04-17 23:53 -7.20595 -43.85760 45963 ft 492 kts 27°
2026-04-17 23:53 -7.17490 -43.84244 45043 ft 499 kts 26°
2026-04-17 23:53 -7.14352 -43.82714 44202 ft 504 kts 26°
2026-04-17 23:54 -7.11189 -43.81171 43459 ft 506 kts 26°
2026-04-17 23:54 -7.07991 -43.79612 42759 ft 507 kts 26°
2026-04-17 23:54 -7.04815 -43.78064 42080 ft 506 kts 26°
2026-04-17 23:54 -7.01663 -43.76528 41407 ft 506 kts 26°
2026-04-17 23:55 -6.98502 -43.74988 40736 ft 505 kts 26°
2026-04-17 23:55 -6.95307 -43.73431 40057 ft 505 kts 26°
2026-04-17 23:55 -6.92165 -43.71900 39389 ft 504 kts 26°
2026-04-17 23:55 -6.89035 -43.70375 38724 ft 503 kts 26°
2026-04-17 23:56 -6.85864 -43.68831 38050 ft 502 kts 26°
2026-04-17 23:56 -6.82732 -43.67306 37385 ft 500 kts 26°
2026-04-17 23:56 -6.79617 -43.65788 36722 ft 499 kts 25°
2026-04-17 23:56 -6.76484 -43.64263 36056 ft 497 kts 25°
2026-04-17 23:57 -6.73387 -43.62756 35398 ft 495 kts 25°
2026-04-17 23:57 -6.70287 -43.61246 34739 ft 492 kts 25°
2026-04-17 23:57 -6.67238 -43.59762 34091 ft 489 kts 25°
2026-04-17 23:57 -6.64189 -43.58278 33442 ft 486 kts 24°
2026-04-17 23:58 -6.61146 -43.56798 32795 ft 482 kts 24°
2026-04-17 23:58 -6.58104 -43.55318 32148 ft 479 kts 24°
2026-04-17 23:58 -6.55132 -43.53872 31525 ft 475 kts 24°
2026-04-17 23:58 -6.52193 -43.52443 30906 ft 470 kts 24°
2026-04-17 23:59 -6.49270 -43.51021 30283 ft 466 kts 24°
2026-04-17 23:59 -6.46335 -43.49594 29659 ft 462 kts 24°
2026-04-17 23:59 -6.43473 -43.48202 29051 ft 458 kts 25°
2026-04-17 23:59 -6.40611 -43.46811 28443 ft 453 kts 25°
2026-04-18 00:00 -6.37798 -43.45445 27845 ft 448 kts 25°
2026-04-18 00:00 -6.34985 -43.44078 27247 ft 443 kts 25°
2026-04-18 00:00 -6.32237 -43.42743 26664 ft 438 kts 26°
2026-04-18 00:00 -6.29521 -43.41423 26087 ft 433 kts 26°
2026-04-18 00:01 -6.26834 -43.40119 25515 ft 428 kts 26°
2026-04-18 00:01 -6.24154 -43.38817 24946 ft 422 kts 26°
2026-04-18 00:01 -6.21552 -43.37543 24396 ft 416 kts 27°
2026-04-18 00:01 -6.18953 -43.36261 23839 ft 410 kts 27°
2026-04-18 00:02 -6.16423 -43.35012 23300 ft 404 kts 27°
2026-04-18 00:02 -6.13904 -43.33768 22764 ft 398 kts 27°
2026-04-18 00:02 -6.11460 -43.32562 22243 ft 392 kts 27°
2026-04-18 00:02 -6.09010 -43.31353 21720 ft 386 kts 27°
2026-04-18 00:03 -6.06620 -43.30173 21213 ft 382 kts 27°
2026-04-18 00:03 -6.04245 -43.29001 20708 ft 380 kts 27°
2026-04-18 00:03 -6.01887 -43.27838 20205 ft 377 kts 27°
2026-04-18 00:03 -5.99549 -43.26684 19706 ft 373 kts 27°
2026-04-18 00:04 -5.97222 -43.25536 19210 ft 370 kts 27°
2026-04-18 00:04 -5.94941 -43.24411 18724 ft 366 kts 26°
2026-04-18 00:04 -5.92658 -43.23285 18238 ft 362 kts 26°
2026-04-18 00:04 -5.90397 -43.22170 17756 ft 358 kts 26°
2026-04-18 00:05 -5.88187 -43.21081 17285 ft 355 kts 26°
2026-04-18 00:05 -5.85961 -43.19983 16811 ft 353 kts 26°
2026-04-18 00:05 -5.83765 -43.18901 16343 ft 351 kts 26°
2026-04-18 00:05 -5.81582 -43.17825 15878 ft 349 kts 26°
2026-04-18 00:06 -5.79409 -43.16754 15415 ft 347 kts 27°
2026-04-18 00:06 -5.77226 -43.15678 14950 ft 345 kts 27°
2026-04-18 00:06 -5.75090 -43.14626 14512 ft 342 kts 27°
2026-04-18 00:06 -5.72966 -43.13580 14071 ft 339 kts 27°
2026-04-18 00:07 -5.70867 -43.12546 13631 ft 336 kts 27°
2026-04-18 00:07 -5.68773 -43.11514 13183 ft 333 kts 27°
2026-04-18 00:07 -5.66815 -43.10328 12679 ft 329 kts 43°
2026-04-18 00:07 -5.65246 -43.08665 12365 ft 320 kts 47°
2026-04-18 00:08 -5.63673 -43.07156 12088 ft 313 kts 43°
2026-04-18 00:08 -5.61895 -43.05873 11564 ft 308 kts 36°
2026-04-18 00:08 -5.60138 -43.04723 11128 ft 298 kts 35°
2026-04-18 00:08 -5.58427 -43.03610 10423 ft 298 kts 35°
2026-04-18 00:09 -5.56679 -43.02469 9557 ft 295 kts 36°
2026-04-18 00:09 -5.54979 -43.01356 8889 ft 290 kts 36°
2026-04-18 00:09 -5.53317 -43.00267 8463 ft 273 kts 36°
2026-04-18 00:09 -5.51771 -42.99252 8137 ft 261 kts 36°
2026-04-18 00:10 -5.50280 -42.98280 7817 ft 252 kts 35°
2026-04-18 00:10 -5.48822 -42.97347 7493 ft 245 kts 35°
2026-04-18 00:10 -5.47411 -42.96429 7136 ft 241 kts 36°
2026-04-18 00:10 -5.45997 -42.95493 6591 ft 243 kts 36°
2026-04-18 00:11 -5.44578 -42.94546 5985 ft 246 kts 36°
2026-04-18 00:11 -5.43176 -42.93608 5371 ft 244 kts 35°
2026-04-18 00:11 -5.41750 -42.92652 4866 ft 242 kts 35°
2026-04-18 00:11 -5.40378 -42.91734 4557 ft 233 kts 34°
2026-04-18 00:12 -5.39066 -42.90855 4292 ft 226 kts 34°
2026-04-18 00:12 -5.37773 -42.89988 4031 ft 219 kts 34°
2026-04-18 00:12 -5.36514 -42.89145 3774 ft 214 kts 34°
2026-04-18 00:12 -5.35294 -42.88328 3521 ft 211 kts 33°
2026-04-18 00:13 -5.34075 -42.87511 3266 ft 208 kts 33°
2026-04-18 00:13 -5.32881 -42.86711 3014 ft 206 kts 33°
2026-04-18 00:13 -5.31699 -42.85919 2763 ft 204 kts 33°
2026-04-18 00:13 -5.30536 -42.85140 2526 ft 200 kts 33°
2026-04-18 00:14 -5.29387 -42.84370 2287 ft 196 kts 33°
2026-04-18 00:14 -5.28344 -42.83672 2059 ft 190 kts 33°
2026-04-18 00:14 -5.27280 -42.82959 1907 ft 180 kts 33°
2026-04-18 00:14 -5.26264 -42.82278 1897 ft 172 kts 33°
2026-04-18 00:15 -5.25268 -42.81612 1888 ft 176 kts 33°
2026-04-18 00:15 -5.24231 -42.80924 1890 ft 178 kts 31°
2026-04-18 00:15 -5.23094 -42.80674 1841 ft 168 kts 353°
2026-04-18 00:15 -5.21991 -42.80882 1860 ft 159 kts 359°
2026-04-18 00:16 -5.20870 -42.80856 1935 ft 160 kts
2026-04-18 00:16 -5.19733 -42.80913 1983 ft 168 kts 356°
2026-04-18 00:16 -5.18612 -42.81038 2012 ft 153 kts 354°
2026-04-18 00:16 -5.17595 -42.81155 1977 ft 142 kts 354°
2026-04-18 00:17 -5.16634 -42.81257 1931 ft 140 kts 354°
2026-04-18 00:17 -5.15682 -42.81358 1895 ft 136 kts 354°
2026-04-18 00:17 -5.14741 -42.81467 1826 ft 138 kts 354°
2026-04-18 00:17 -5.13789 -42.81578 1739 ft 135 kts 353°
2026-04-18 00:18 -5.12859 -42.81687 1581 ft 136 kts 353°
2026-04-18 00:18 -5.11918 -42.81782 1399 ft 136 kts 354°
2026-04-18 00:18 -5.10971 -42.81864 1199 ft 135 kts 354°
2026-04-18 00:18 -5.10048 -42.81952 969 ft 134 kts 353°
2026-04-18 00:19 -5.09117 -42.82053 722 ft 133 kts 353°
2026-04-18 00:19 -5.08210 -42.82146 496 ft 129 kts 354°
2026-04-18 00:19 -5.07331 -42.82236 317 ft 127 kts 354°
2026-04-18 00:19 -5.06479 -42.82321 224 ft 115 kts 354°
2026-04-18 00:20 -5.05837 -42.82384 223 ft 67 kts 354°
2026-04-18 00:20 -5.05491 -42.82418 223 ft 40 kts 354°
2026-04-18 00:20 -5.05264 -42.82441 223 ft 29 kts 354°
2026-04-18 00:20 -5.05115 -42.82454 223 ft 15 kts 358°
2026-04-18 00:21 -5.05042 -42.82428 223 ft 10 kts
2026-04-18 00:21 -5.05040 -42.82462 223 ft 10 kts 185°
2026-04-18 00:21 -5.05091 -42.82458 223 ft 12 kts 174°
2026-04-18 00:21 -5.05233 -42.82443 223 ft 18 kts 174°
2026-04-18 00:22 -5.05374 -42.82429 223 ft 22 kts 174°
2026-04-18 00:22 -5.05539 -42.82412 223 ft 26 kts 174°
2026-04-18 00:22 -5.05664 -42.82399 223 ft 28 kts 174°
2026-04-18 00:22 -5.05940 -42.82372 223 ft 32 kts 174°
2026-04-18 00:23 -5.06090 -42.82357 223 ft 32 kts 174°
2026-04-18 00:23 -5.06318 -42.82326 223 ft 11 kts 135°
2026-04-18 00:23 -5.06328 -42.82293 223 ft 7 kts 90°
2026-04-18 00:23 -5.06324 -42.82258 223 ft 1 kts 84°
2026-04-18 00:24 -5.06322 -42.82231 223 ft 6 kts 84°
2026-04-18 00:24 -5.06299 -42.82201 223 ft 2 kts 355°
2026-04-18 00:24 -5.06282 -42.82189 223 ft 5 kts 69°
2026-04-18 00:24 -5.06275 -42.82172 223 ft 0 kts 65°